Simultaneous Nadir Overpasses (SNOs) Predictions

Prediction of SNOs between GOES-16 and AQUA Satellite Orbit:

Table of predicted SNOs for the next 14.0 days since TLE Epoch: 1/6/2024
Index Date Time (GOES-16) GOES-16 Lat,Lon AQUA Lat,Lon Distance(km) Time Diff (sec)
1 01/07/2024 19:00:00 0.03, -75.22 0.13, -74.71 57.15 80
2 01/09/2024 18:44:41 0.02, -75.22 0.96, -70.98 483.91 80
3 01/10/2024 07:05:07 -0.02, -75.22 0.16, -75.91 79.36 80
4 01/12/2024 06:47:07 -0.01, -75.23 -0.65, -72.17 347.93 80
5 01/12/2024 19:07:42 0.01, -75.24 -0.41, -77.15 218.25 80
6 01/14/2024 18:55:02 0.01, -75.25 0.43, -73.41 209.93 80
7 01/15/2024 07:15:27 -0.01, -75.26 0.67, -78.35 352.48 80
8 01/17/2024 06:57:26 -0.02, -75.28 -0.16, -74.61 76.88 80
9 01/17/2024 19:18:01 0.02, -75.29 -0.88, -79.59 488.97 80
10 01/19/2024 19:02:38 0.00, -75.32 -0.13, -75.83 58.25 80
